Massena, NY

9:20 PM EDT on August 29, 2016 (GMT -0400)
Massena International-Richards

Weather History for KMSS - January, 2013

Change the Weather History Date:

Friday, January 4, 2013

  Actual Average Record
Temperature  
Mean Temperature 22 °F 16 °F  
Max Temperature 34 °F 25 °F 59 °F (1950)
Min Temperature 10 °F 6 °F -38 °F (1981)
Degree Days  
Heating Degree Days 43 50  
Month to date heating degree days 229 197  
Since 1 July heating degree days 3015 3296  
Cooling Degree Days 0 0  
Month to date cooling degree days 0  
Year to date cooling degree days 0  
Moisture  
Dew Point 23 °F    
Average Humidity 79    
Maximum Humidity 88    
Minimum Humidity 69    
Precipitation  
Precipitation T in 0.08 in 0.87 in (2015)
Month to date precipitation 0.01 0.31  
Year to date precipitation 0.01 0.31  
Sea Level Pressure  
Sea Level Pressure 29.78 in    
Wind  
Wind Speed 17 mph (SW)    
Max Wind Speed 30 mph    
Max Gust Speed 37 mph    
Visibility 7 miles    
Events Snow    
T = Trace of Precipitation, MM = Missing Value Source: NWS Daily Summary

Daily Weather History Graph

Daily Weather History Graph

Search for Another Location

Airport or City:

Trip Planner

Search our weather history database for the weather conditions in past years. The results will help you decide how hot, cold, wet, or windy it might be!

Date:

Astronomy

Jan. 04, 2013 Rise Set
Actual Time 7:37 AM EST 4:31 PM EST
Civil Twilight 7:03 AM EST 5:05 PM EST
Nautical Twilight 6:27 AM EST 5:42 PM EST
Astronomical Twilight 5:51 AM EST 6:17 PM EST
Moon No Moon Rise 10:58 AM EST (1/4)
Length of Visible Light 10h 01m
Length of Day
8h 54m
Waning Gibbous, 55% of the Moon is Illuminated
Jan 4
Waning Gibbous
Jan 4
Last Quarter
Jan 11
New
Jan 18
First Quarter
Jan 26
Full

Hourly Weather History & Observations

Time (EST) Temp. Windchill Dew Point Humidity Pressure Visibility Wind Dir Wind Speed Gust Speed Precip Events Conditions
12:14 AM 12.2 °F 6.1 °F 6.8 °F 79% 29.88 in 10.0 mi West 3.5 mph - 0.00 in   Overcast
12:41 AM 12.2 °F - 10.4 °F 92% 29.87 in 10.0 mi Calm Calm - 0.00 in   Overcast
12:53 AM 17.1 °F 11.7 °F 12.0 °F 81% 29.90 in 9.0 mi WSW 3.5 mph - 0.00 in   Overcast
1:53 AM 21.9 °F 13.4 °F 18.0 °F 85% 29.89 in 9.0 mi SW 6.9 mph - N/A   Overcast
2:53 AM 21.2 °F 11.7 °F 17.6 °F 86% 29.86 in 7.0 mi SW 8.1 mph - N/A   Overcast
3:53 AM 23.0 °F 13.9 °F 19.0 °F 85% 29.87 in 8.0 mi SW 8.1 mph - N/A   Overcast
4:53 AM 24.1 °F 13.7 °F 21.0 °F 88% 29.86 in 7.0 mi SW 10.4 mph - N/A   Overcast
5:53 AM 26.1 °F 15.0 °F 21.9 °F 84% 29.84 in 8.0 mi SW 12.7 mph - N/A   Overcast
6:53 AM 28.9 °F 17.3 °F 21.9 °F 75% 29.81 in 10.0 mi SW 16.1 mph - N/A   Overcast
7:53 AM 30.9 °F 18.4 °F 23.0 °F 72% 29.77 in 5.0 mi SW 20.7 mph 32.2 mph 0.00 in   Haze
8:03 AM 30.2 °F 15.7 °F 24.8 °F 80% 29.73 in 1.8 mi SSW 27.6 mph 34.5 mph 0.00 in Snow Light Snow
8:12 AM 30.2 °F 16.8 °F 24.8 °F 80% 29.73 in 1.2 mi SSW 23.0 mph 36.8 mph 0.00 in Snow Light Snow
8:17 AM 30.2 °F 16.8 °F 24.8 °F 80% 29.74 in 2.0 mi SW 23.0 mph 32.2 mph 0.00 in Snow Light Snow
8:26 AM 30.2 °F 18.5 °F 24.8 °F 80% 29.74 in 6.0 mi SW 17.3 mph 28.8 mph 0.00 in   Haze
8:40 AM 32.0 °F 21.2 °F 24.8 °F 75% 29.76 in 10.0 mi WSW 16.1 mph 23.0 mph 0.00 in   Overcast
8:53 AM 32.0 °F 21.2 °F 25.0 °F 75% 29.80 in 10.0 mi WSW 16.1 mph - 0.00 in   Overcast
9:53 AM 33.1 °F 21.5 °F 24.1 °F 70% 29.81 in 9.0 mi WSW 19.6 mph 27.6 mph N/A   Overcast
10:00 AM 33.8 °F 22.8 °F 24.8 °F 70% 29.78 in 9.0 mi SW 18.4 mph 26.5 mph N/A   Overcast
10:26 AM 33.8 °F 22.2 °F 24.8 °F 70% 29.77 in 8.0 mi SW 20.7 mph 28.8 mph 0.00 in   Overcast
10:53 AM 32.0 °F 20.1 °F 24.1 °F 73% 29.79 in 6.0 mi SW 19.6 mph 31.1 mph 0.00 in   Haze
11:21 AM 32.0 °F 19.2 °F 24.8 °F 75% 29.75 in 1.8 mi SW 23.0 mph 34.5 mph 0.00 in Snow Light Snow
11:31 AM 32.0 °F 21.2 °F 24.8 °F 75% 29.75 in 1.2 mi SW 16.1 mph 25.3 mph 0.00 in Snow Light Snow
11:53 AM 32.0 °F 20.1 °F 25.0 °F 75% 29.76 in 1.8 mi SW 19.6 mph 27.6 mph 0.00 in Snow Light Snow
12:11 PM 32.0 °F 20.5 °F 26.6 °F 80% 29.73 in 2.0 mi SW 18.4 mph 28.8 mph 0.00 in Snow Light Snow
12:51 PM 33.8 °F 22.5 °F 26.6 °F 75% 29.72 in 4.0 mi WSW 19.6 mph 27.6 mph 0.00 in Snow Light Snow
12:53 PM 33.1 °F 23.0 °F 25.0 °F 72% 29.74 in 4.0 mi WSW 15.0 mph 27.6 mph 0.00 in Snow Light Snow
1:53 PM 34.0 °F 23.8 °F 25.0 °F 70% 29.74 in 6.0 mi WSW 16.1 mph 26.5 mph N/A   Haze
2:14 PM 33.8 °F 22.2 °F 24.8 °F 70% 29.72 in 6.0 mi SW 20.7 mph 27.6 mph N/A   Haze
2:45 PM 33.8 °F 22.8 °F 24.8 °F 70% 29.73 in 6.0 mi SW 18.4 mph 34.5 mph N/A   Haze
2:53 PM 33.1 °F 21.5 °F 24.1 °F 70% 29.75 in 5.0 mi SW 19.6 mph 34.5 mph N/A   Haze
3:53 PM 32.0 °F 20.5 °F 24.1 °F 73% 29.76 in 6.0 mi SW 18.4 mph 26.5 mph N/A   Haze
4:53 PM 32.0 °F 19.8 °F 24.1 °F 73% 29.77 in 8.0 mi SW 20.7 mph 27.6 mph 0.00 in   Overcast
5:53 PM 32.0 °F 19.2 °F 24.1 °F 73% 29.78 in 8.0 mi SW 23.0 mph 28.8 mph N/A   Overcast
6:04 PM 32.0 °F 20.5 °F 24.8 °F 75% 29.76 in 8.0 mi SW 18.4 mph 32.2 mph N/A   Overcast
6:53 PM 32.0 °F 20.8 °F 24.1 °F 73% 29.79 in 9.0 mi SW 17.3 mph 25.3 mph N/A   Overcast
7:53 PM 32.0 °F 20.1 °F 24.1 °F 73% 29.79 in 9.0 mi SW 19.6 mph 25.3 mph N/A   Overcast
8:09 PM 32.0 °F 20.5 °F 24.8 °F 75% 29.77 in 9.0 mi SW 18.4 mph 33.4 mph N/A   Overcast
8:50 PM 32.0 °F 20.8 °F 24.8 °F 75% 29.77 in 10.0 mi SW 17.3 mph 29.9 mph N/A   Overcast
8:53 PM 32.0 °F 20.1 °F 24.1 °F 73% 29.78 in 10.0 mi SW 19.6 mph 29.9 mph N/A   Overcast
9:01 PM 32.0 °F 20.1 °F 24.8 °F 75% 29.77 in 10.0 mi SW 19.6 mph 28.8 mph N/A   Overcast
9:08 PM 32.0 °F 21.2 °F 24.8 °F 75% 29.77 in 10.0 mi SW 16.1 mph 31.1 mph N/A   Overcast
9:45 PM 32.0 °F 20.8 °F 24.8 °F 75% 29.77 in 9.0 mi WSW 17.3 mph 34.5 mph N/A   Overcast
9:53 PM 32.0 °F 20.1 °F 24.1 °F 73% 29.79 in 9.0 mi WSW 19.6 mph 26.5 mph N/A   Overcast
10:20 PM 32.0 °F 19.2 °F 24.8 °F 75% 29.78 in 8.0 mi SW 23.0 mph 33.4 mph N/A   Overcast
10:53 PM 32.0 °F 19.5 °F 25.0 °F 75% 29.80 in 3.0 mi SW 21.9 mph 35.7 mph 0.00 in Snow Light Snow
11:53 PM 32.0 °F 20.1 °F 25.0 °F 75% 29.81 in 3.0 mi WSW 19.6 mph 29.9 mph 0.00 in Snow Light Snow